Wind_Speed
14 14 12 11 10 8 6 4 2 1 1 2 3 4 5 6 6 5 5 4 4 4 5 5 5 5 4 5 5 5 6 6 5 5 5 4 4 4 4 4 4 3 3 2
16 14 14 13 12 10 8 7 5 3 2 2 1 2 3 4 4 4 4 5 5 4 4 5 5 5 5 5 5 5 5 5 4 5 5 5 4 4 4 4 4 4 3 3
17 16 16 15 12 10 10 9 8 6 4 4 3 1 2 3 3 3 4 4 4 4 4 4 5 4 4 4 4 3 3 3 3 3 4 4 4 3 3 3 3 3 4 3
20 19 18 16 14 12 11 11 11 9 8 6 5 3 2 2 3 3 3 4 4 2 2 2 2 3 2 1 1 1 1 1 2 2 2 3 3 3 3 3 3 3 4 4
21 20 19 18 16 14 13 12 13 12 11 9 7 6 4 3 2 2 3 4 3 3 2 2 3 3 3 2 1 2 1 1 1 1 1 2 3 3 4 4 4 4 5 5
23 22 21 19 18 16 15 14 14 14 13 11 9 8 5 4 4 4 4 3 3 3 3 3 3 4 3 3 3 3 2 2 2 2 2 3 3 4 4 5 5 5 5 6
23 23 22 21 20 19 17 16 15 15 14 13 11 10 7 6 6 6 6 5 5 5 4 3 3 4 4 4 4 4 4 3 3 4 4 4 5 5 6 6 6 6 7 7
23 23 22 22 21 20 18 17 16 16 15 14 13 13 9 8 7 6 6 7 6 6 5 4 4 4 5 5 5 5 5 5 5 5 6 6 7 7 7 7 7 7 8 8
22 21 21 22 22 21 21 20 18 18 18 17 15 13 11 10 9 8 8 7 7 6 6 5 5 5 6 6 6 6 6 6 6 6 7 7 8 8 9 9 9 9 9 10
22 22 22 23 23 22 22 21 21 21 19 18 17 15 13 12 10 9 9 8 8 7 7 7 7 7 7 7 8 8 8 7 8 8 9 9 9 10 10 10 11 11 11 11
24 23 23 25 25 24 23 23 23 22 21 19 18 16 14 14 14 13 11 11 10 9 9 8 8 8 8 9 8 9 10 9 9 9 10 10 11 12 12 12 12 12 12 12
24 24 25 25 25 25 25 24 23 23 22 21 20 17 15 15 15 15 14 13 12 11 10 9 9 9 10 10 10 11 11 11 11 11 11 12 13 14 14 14 13 14 14 14
25 26 26 26 27 27 26 26 25 24 24 23 22 19 18 17 17 16 15 14 14 13 13 12 11 11 11 11 12 12 12 12 12 12 12 13 14 15 15 16 15 15 15 15
26 27 27 27 26 26 27 26 26 26 26 25 23 21 20 19 19 18 17 16 16 15 14 14 13 13 13 14 14 13 14 14 14 14 14 14 15 16 17 17 16 16 16 16
28 28 27 26 27 27 28 28 28 28 27 26 24 24 22 22 21 20 19 18 17 16 16 16 16 16 16 16 17 16 15 15 15 15 16 16 17 17 18 18 17 16 16 17
30 29 28 28 27 28 28 28 28 29 28 27 27 25 24 24 22 21 20 20 19 18 18 18 18 19 19 19 19 18 18 17 17 17 17 18 18 19 19 20 19 18 17 18
31 31 30 30 29 30 30 28 28 29 28 28 28 26 25 24 23 22 21 20 20 20 20 21 22 22 21 21 20 20 19 19 19 18 19 20 20 21 21 21 21 19 19 19
33 32 32 32 32 34 30 29 29 30 30 29 27 26 25 24 24 24 24 23 22 21 22 23 24 23 23 23 22 22 22 21 20 20 20 21 22 22 23 23 23 22 21 21
34 33 33 33 33 32 30 30 30 31 31 29 28 27 26 26 25 25 24 24 24 23 24 24 24 25 24 25 25 25 23 22 22 22 22 22 22 24 24 25 24 22 22 22
34 34 34 34 34 32 30 31 32 32 31 29 28 28 27 26 26 25 25 25 25 25 25 25 25 26 26 27 26 25 24 25 25 24 24 24 24 25 26 25 24 24 24 24
34 35 35 35 35 33 31 31 32 32 30 29 28 27 27 27 28 26 26 26 26 26 26 26 27 27 27 27 27 26 26 26 26 26 25 25 26 27 26 26 26 26 26 25
35 36 37 37 36 34 32 32 32 31 30 29 29 29 28 28 28 27 27 27 27 27 28 28 28 27 27 27 27 27 27 28 28 28 28 27 27 27 27 27 27 27 27 27
35 36 36 37 36 34 34 33 32 32 32 32 31 31 30 29 29 29 29 28 28 28 29 30 29 29 29 28 28 27 27 29 29 29 29 28 28 28 27 27 28 28 28 28
35 36 36 37 36 35 34 33 32 32 32 31 31 31 31 30 29 29 30 29 29 30 30 30 30 30 29 28 28 27 28 28 28 28 28 27 28 28 28 29 29 29 28 29
35 36 36 35 35 35 34 34 32 31 31 31 31 31 31 31 31 30 30 30 29 29 30 30 31 29 29 29 29 29 29 29 30 29 29 29 29 29 29 29 29 30 29 29
35 35 34 33 34 34 33 33 32 32 31 31 32 32 32 32 31 30 30 31 30 30 30 30 29 29 29 29 29 29 29 29 29 29 29 29 29 29 29 30 30 30 30 31
Wind_Direction
210 212 213 209 207 205 206 204 198 138 84 61 66 50 42 44 38 30 33 42 43 46 51 58 64 65 81 83 90 92 88 81 71 62 59 61 63 52 44 42 39 33 19 354
217 214 214 214 213 213 215 213 219 220 225 224 197 40 21 22 32 30 25 39 49 54 58 61 69 70 76 84 89 90 86 79 66 56 49 48 49 42 39 40 37 32 23 13
219 217 218 217 218 218 220 221 225 232 235 242 237 258 329 354 6 4 358 15 33 40 42 58 63 63 68 74 78 80 81 71 56 53 46 37 32 30 26 24 21 17 16 5
220 220 220 218 222 225 226 230 231 238 245 248 258 271 258 280 347 359 349 355 359 4 3 17 28 31 37 53 74 77 54 56 27 29 35 32 29 22 7 0 357 353 351 345
222 223 223 223 226 232 232 231 232 238 248 250 257 270 266 255 296 322 330 338 341 326 318 319 323 336 346 336 304 279 294 337 338 310 332 351 355 354 346 338 333 333 332 329
224 225 226 227 226 229 232 231 232 237 245 251 258 265 257 253 262 281 297 309 313 312 303 305 308 306 306 310 308 303 301 312 323 316 317 332 340 338 336 332 325 324 321 316
225 226 227 228 225 227 232 233 233 238 244 253 258 259 256 255 261 274 282 284 288 293 292 293 302 296 290 290 301 308 301 299 305 312 317 323 327 329 327 325 323 320 316 313
226 227 227 228 227 228 231 234 236 242 248 255 257 260 258 259 265 273 276 276 281 284 283 291 304 304 295 291 288 300 304 303 296 300 306 309 313 315 316 317 317 315 311 308
229 229 228 227 226 229 233 236 238 244 248 253 255 257 253 257 265 267 268 272 276 273 274 280 290 295 299 290 286 290 295 295 298 302 299 297 301 305 305 306 308 308 304 301
231 231 228 227 228 230 234 238 241 246 251 256 256 256 258 260 262 267 271 272 270 268 268 268 279 287 291 294 287 286 287 287 290 295 294 292 291 294 299 300 303 306 303 300
232 232 229 229 229 233 235 239 243 247 252 255 257 258 261 264 267 272 276 273 276 279 275 271 276 282 288 295 294 291 287 286 289 293 294 291 290 289 291 294 299 301 301 300
231 231 230 230 232 235 236 239 244 248 251 255 259 260 263 264 266 271 275 273 272 273 274 276 277 279 284 289 291 292 291 284 285 289 292 293 292 292 291 291 296 300 300 295
231 232 233 231 233 237 238 240 245 250 250 254 258 259 261 264 264 268 272 273 271 270 271 273 277 280 283 287 288 288 288 286 285 284 285 288 290 292 291 291 294 296 300 298
234 236 237 236 238 241 243 245 248 251 252 256 259 260 259 263 265 268 269 271 271 269 268 272 275 277 281 284 283 282 284 285 285 282 281 282 286 292 293 294 296 296 298 300
236 239 240 239 238 240 244 247 249 251 254 258 260 261 261 262 266 266 268 268 269 269 268 270 272 274 279 284 285 280 279 282 282 281 280 282 287 291 294 295 296 297 300 302
238 241 243 243 242 244 246 247 249 251 254 257 259 261 262 261 264 266 268 270 269 268 269 271 273 277 279 281 283 281 276 278 277 278 281 283 284 289 293 297 297 294 299 300
240 242 244 245 245 246 247 249 250 250 251 255 259 261 261 259 260 264 265 265 266 267 269 270 273 276 276 278 281 281 280 276 275 278 281 282 283 286 290 295 298 295 297 299
242 244 247 248 248 250 252 252 251 251 252 254 258 261 260 258 257 258 260 262 263 265 267 269 272 273 275 277 279 280 278 276 275 278 280 281 283 285 286 289 292 292 295 298
242 244 247 249 250 251 250 251 252 253 254 255 258 257 259 261 258 257 258 261 264 265 266 266 268 270 274 275 276 277 275 275 276 277 279 280 283 284 284 285 286 287 292 295
243 244 246 248 251 252 253 252 252 255 257 258 257 256 258 258 258 260 261 262 264 266 267 269 269 269 272 274 274 273 273 275 276 277 277 279 282 283 285 285 285 286 288 291
242 243 244 248 252 253 254 254 254 255 259 259 258 258 259 259 259 259 260 261 263 265 265 268 268 269 269 270 269 270 272 273 275 277 279 278 280 281 282 282 283 285 288 290
242 244 245 247 250 252 254 256 255 257 257 257 259 261 262 261 259 260 260 260 261 263 265 268 269 270 270 269 267 269 270 272 274 275 277 278 279 280 280 281 282 285 287 288
243 244 246 248 250 253 254 256 256 256 257 257 258 259 261 262 261 260 260 262 262 262 264 267 269 270 271 270 267 270 272 273 274 275 276 278 277 279 281 282 284 285 286 288
243 245 247 249 250 253 254 255 255 255 255 256 257 258 261 261 262 262 261 262 260 260 263 265 267 269 271 270 268 269 270 271 274 274 276 278 279 280 280 282 284 286 286 286
243 245 247 249 250 251 253 253 254 256 256 255 255 257 259 260 261 262 261 260 260 261 262 264 266 268 267 266 267 265 267 270 273 274 276 278 279 280 280 281 283 285 285 285
242 245 248 249 249 250 251 251 253 254 255 256 256 258 258 258 261 261 260 259 260 260 260 262 264 266 266 266 265 265 267 271 274 276 278 280 280 280 280 281 282 283 284 285
Height
5898 5901 5902 5903 5905 5906 5906 5907 5907 5908 5908 5907 5907 5906 5905 5904 5904 5903 5903 5902 5902 5901 5900 5899 5899 5899 5898 5898 5898 5898 5898 5898 5897 5897 5896 5895 5895 5894 5894 5893 5892 5891 5891 5890
5897 5899 5901 5902 5903 5904 5905 5907 5907 5908 5907 5907 5907 5907 5906 5905 5905 5904 5904 5903 5902 5901 5901 5900 5900 5899 5899 5899 5899 5898 5898 5898 5898 5897 5897 5896 5895 5895 5894 5893 5893 5892 5891 5890
5895 5898 5899 5900 5902 5903 5904 5906 5906 5907 5907 5907 5907 5907 5906 5906 5905 5905 5905 5904 5903 5902 5902 5901 5901 5900 5899 5899 5899 5899 5899 5898 5898 5898 5897 5896 5896 5895 5894 5894 5893 5892 5891 5890
5891 5894 5896 5898 5900 5901 5903 5904 5905 5905 5905 5906 5906 5906 5906 5906 5905 5905 5905 5904 5904 5903 5902 5902 5901 5900 5900 5899 5899 5899 5899 5898 5898 5898 5897 5896 5896 5895 5895 5894 5893 5892 5891 5890
5889 5891 5894 5896 5898 5899 5901 5902 5902 5903 5903 5904 5904 5905 5906 5905 5905 5905 5905 5904 5904 5903 5902 5902 5901 5900 5899 5899 5898 5898 5898 5898 5897 5897 5897 5896 5896 5895 5894 5893 5892 5891 5891 5890
5885 5888 5890 5893 5895 5896 5898 5899 5900 5900 5901 5903 5903 5903 5905 5904 5904 5904 5904 5904 5903 5903 5902 5901 5900 5900 5899 5898 5898 5897 5897 5897 5897 5897 5896 5896 5895 5894 5893 5893 5892 5891 5890 5889
5881 5884 5887 5889 5891 5893 5895 5897 5898 5898 5899 5900 5901 5901 5903 5903 5903 5903 5903 5903 5902 5902 5901 5900 5899 5899 5898 5897 5897 5896 5896 5896 5896 5896 5895 5895 5894 5893 5892 5891 5891 5890 5889 5888
5877 5881 5883 5885 5888 5890 5892 5894 5896 5896 5897 5898 5899 5899 5902 5902 5901 5901 5901 5901 5901 5901 5900 5899 5898 5898 5897 5896 5896 5895 5895 5894 5894 5894 5894 5893 5893 5892 5891 5890 5889 5888 5887 5886
5874 5877 5879 5882 5884 5886 5888 5889 5892 5893 5894 5895 5896 5898 5899 5899 5899 5899 5899 5899 5899 5899 5898 5898 5897 5896 5896 5895 5894 5894 5893 5893 5892 5892 5892 5891 5891 5890 5889 5888 5887 5886 5885 5884
5870 5873 5875 5877 5879 5882 5884 5886 5888 5889 5890 5891 5893 5895 5897 5897 5897 5898 5897 5897 5897 5897 5896 5896 5895 5894 5894 5893 5893 5892 5892 5891 5891 5890 5890 5889 5888 5888 5887 5886 5885 5884 5882 5881
5865 5868 5871 5873 5875 5878 5880 5882 5883 5885 5887 5888 5889 5894 5894 5894 5894 5895 5895 5895 5894 5894 5893 5893 5892 5892 5891 5891 5890 5890 5890 5889 5888 5888 5887 5886 5886 5885 5884 5882 5881 5880 5879 5878
5860 5863 5866 5869 5871 5873 5875 5877 5879 5881 5883 5884 5885 5891 5890 5890 5890 5891 5892 5892 5891 5891 5891 5890 5890 5889 5889 5888 5888 5887 5887 5886 5885 5885 5884 5883 5883 5881 5880 5879 5878 5876 5875 5874
5855 5858 5861 5864 5867 5869 5870 5872 5874 5876 5878 5879 5881 5886 5885 5886 5886 5887 5888 5888 5888 5888 5888 5887 5887 5886 5886 5885 5885 5884 5883 5882 5882 5881 5881 5880 5879 5877 5876 5875 5873 5872 5871 5870
5851 5853 5856 5859 5862 5863 5865 5868 5869 5871 5872 5874 5876 5878 5881 5881 5882 5883 5884 5884 5884 5884 5884 5884 5883 5883 5882 5882 5881 5880 5879 5879 5878 5877 5876 5875 5874 5874 5873 5871 5869 5868 5866 5865
5844 5847 5850 5853 5856 5857 5859 5862 5864 5865 5867 5869 5871 5872 5875 5876 5877 5878 5879 5879 5879 5880 5880 5880 5879 5879 5878 5877 5877 5876 5875 5874 5874 5873 5872 5871 5870 5870 5869 5867 5865 5863 5862 5860
5838 5841 5844 5846 5849 5851 5852 5855 5857 5859 5861 5862 5864 5866 5869 5870 5871 5872 5873 5874 5874 5875 5875 5875 5874 5874 5873 5873 5872 5870 5870 5869 5869 5868 5867 5866 5866 5865 5864 5862 5860 5859 5857 5856
5831 5834 5837 5839 5842 5843 5846 5849 5851 5852 5854 5856 5857 5861 5862 5863 5865 5866 5867 5868 5868 5869 5869 5869 5869 5868 5868 5867 5866 5865 5865 5864 5864 5863 5863 5862 5861 5861 5859 5857 5855 5854 5852 5851
5825 5828 5830 5832 5835 5836 5843 5843 5844 5845 5847 5849 5851 5853 5855 5856 5858 5859 5860 5861 5861 5862 5862 5862 5862 5862 5861 5861 5860 5860 5859 5859 5858 5857 5857 5856 5855 5855 5854 5852 5850 5849 5847 5846
5817 5820 5822 5824 5826 5829 5833 5835 5837 5838 5840 5843 5844 5846 5848 5849 5850 5852 5854 5854 5855 5855 5855 5855 5855 5855 5855 5854 5853 5853 5853 5852 5852 5851 5851 5850 5849 5849 5847 5845 5844 5843 5842 5840
5809 5812 5815 5817 5819 5822 5827 5829 5830 5832 5833 5836 5837 5839 5840 5842 5843 5846 5847 5847 5848 5848 5848 5848 5848 5848 5848 5847 5846 5846 5846 5846 5845 5845 5844 5844 5843 5842 5841 5839 5838 5837 5836 5834
5801 5804 5807 5809 5812 5815 5819 5820 5823 5826 5828 5829 5829 5831 5833 5834 5836 5838 5838 5839 5840 5840 5840 5840 5840 5840 5840 5839 5838 5839 5839 5839 5838 5838 5837 5837 5836 5835 5834 5833 5832 5831 5829 5828
5793 5796 5799 5801 5804 5809 5811 5812 5815 5818 5819 5820 5822 5823 5825 5827 5828 5829 5830 5831 5832 5832 5833 5833 5832 5832 5831 5830 5830 5831 5831 5831 5831 5830 5830 5830 5829 5828 5827 5826 5825 5824 5823 5821
5785 5788 5790 5794 5798 5800 5802 5805 5807 5808 5810 5812 5814 5816 5817 5819 5820 5821 5822 5823 5823 5823 5824 5824 5823 5823 5823 5823 5823 5823 5823 5823 5823 5823 5822 5821 5820 5820 5819 5819 5818 5816 5815 5814
5776 5779 5782 5785 5789 5791 5794 5796 5798 5800 5802 5804 5806 5808 5809 5811 5812 5813 5814 5814 5814 5815 5815 5815 5815 5815 5815 5815 5815 5815 5815 5816 5815 5815 5814 5813 5813 5812 5811 5810 5809 5808 5807 5806
5768 5771 5773 5776 5780 5783 5785 5787 5789 5792 5794 5795 5797 5799 5801 5802 5803 5805 5806 5806 5806 5806 5807 5807 5807 5806 5806 5807 5807 5807 5807 5807 5807 5807 5806 5806 5805 5804 5803 5802 5801 5800 5799 5798
5760 5762 5765 5769 5772 5774 5776 5778 5781 5783 5785 5787 5789 5791 5792 5793 5795 5796 5797 5797 5797 5798 5798 5798 5798 5799 5799 5799 5799 5799 5799 5799 5799 5798 5798 5797 5796 5795 5794 5793 5792 5791 5790 5788